Home   Weather   Lexington   Past weeks

Flag for USA Past Weather in Lexington, North Carolina, USA — Yesterday and Last 2 Weeks

Now
40 °F

Fog.


Feels Like: 40 °F
Forecast: 39 / 60 °F
Wind: No wind

Location: Davidson County Airport

Current Time: Jan 24, 2017 at 4:13:25 am

Latest Report: Jan 24, 2017 at 3:20 am


Visibility: 3 mi

Pressure: 29.53 "Hg

Humidity: 100%

Dew Point: 40 °F

Location of LexingtonLocation

Past Weather in Lexington — Graph

°F

Lexington Temperature Yesterday

Maximum temperature yesterday: 57 °F (at 3:20 pm)
Minimum temperature yesterday: 44 °F (at 11:40 pm)
Average temperature yesterday: 50 °F

High & Low Weather Summary for the Past Weeks

 TemperatureHumidityPressure
High72 °F (Jan 13, 3:40 pm)100% (Jan 11, 6:20 pm)30.76 "Hg (Jan 11, 6:20 pm)
Low6 °F (Jan 9, 5:00 am)26% (Jan 18, 1:20 pm)29.18 "Hg (Jan 23, 2:40 am)
Average48 °F82%30.13 "Hg
* Reported Jan 9 2:20 am — Jan 24 2:40 am, Lexington, Weather by CustomWeather, © 2017

Note: Actual official high and low records may vary slightly from our data, if they occured in-between our weather recording intervals... More about our weather records

Advertising

Lexington Weather History for the Previous 24 Hours

Scroll right to see more
 ConditionsComfort  
Time TempWeatherWind HumidityBarometerVisibility
2:40 am
Tue, Jan 24
41 °FPassing clouds.No wind100%29.53 "Hg10 mi
2:20 am42 °FPassing clouds.No wind100%29.53 "Hg10 mi
2:00 am42 °FPartly cloudy.No wind100%29.53 "Hg10 mi
1:40 am43 °FOvercast.No wind100%29.52 "Hg10 mi
1:00 am43 °FPartly cloudy.No wind100%29.53 "Hg10 mi
12:20 am43 °FLight rain. Mostly cloudy.No wind99%29.53 "Hg7 mi
11:40 pm
Mon, Jan 23
44 °FRain. Overcast.No wind96%29.52 "Hg10 mi
11:20 pm44 °FDrizzle. Mostly cloudy.No wind93%29.51 "Hg10 mi
10:40 pm44 °FPassing clouds.No wind90%29.50 "Hg10 mi
10:20 pm45 °FLight rain. Mostly cloudy.No wind87%29.49 "Hg10 mi
10:00 pm45 °FDrizzle. Mostly cloudy.3 mph88%29.49 "Hg10 mi
9:20 pm45 °FDrizzle. Overcast.No wind89%29.47 "Hg10 mi
9:00 pm46 °FDrizzle. Mostly cloudy.5 mph87%29.46 "Hg10 mi
8:40 pm46 °FMostly cloudy.3 mph83%29.46 "Hg10 mi
8:00 pm46 °FPartly cloudy.5 mph86%29.45 "Hg10 mi
7:40 pm47 °FOvercast.3 mph86%29.44 "Hg10 mi
7:00 pm47 °FOvercast.7 mph89%29.41 "Hg10 mi
6:40 pm48 °FMostly cloudy.6 mph88%29.40 "Hg10 mi
6:00 pm49 °FOvercast.5 mph86%29.37 "Hg10 mi
5:40 pm49 °FMostly cloudy.5 mph88%29.36 "Hg10 mi
5:00 pm50 °FCloudy.3 mph94%29.34 "Hg7 mi
4:20 pm54 °FCloudy.5 mph76%29.31 "Hg10 mi
4:00 pm55 °FOvercast.No wind73%29.29 "Hg10 mi
3:20 pm57 °FPartly sunny.7 mph66%29.28 "Hg10 mi
2:40 pm56 °FScattered clouds.3 mph65%29.27 "Hg10 mi
2:00 pm57 °FScattered clouds.6 mph64%29.27 "Hg10 mi
1:40 pm56 °FSunny.5 mph67%29.27 "Hg10 mi
1:00 pm52 °FOvercast.5 mph81%29.27 "Hg10 mi
12:40 pm52 °FOvercast.No wind80%29.28 "Hg10 mi
12:00 pm51 °FOvercast.No wind85%29.29 "Hg10 mi
11:40 am51 °FOvercast.3 mph82%29.29 "Hg10 mi
11:00 am51 °FOvercast.No wind88%29.28 "Hg10 mi
10:20 am50 °FOvercast.5 mph90%29.27 "Hg10 mi
9:40 am50 °FOvercast.6 mph91%29.25 "Hg10 mi
9:20 am50 °FOvercast.6 mph94%29.24 "Hg10 mi
8:40 am50 °FMostly cloudy.5 mph95%29.25 "Hg10 mi
8:20 am50 °FOvercast.No wind96%29.23 "Hg10 mi
8:00 am50 °FMore clouds than sun.7 mph97%29.23 "Hg10 mi
7:40 am50 °FMore clouds than sun.3 mph97%29.22 "Hg10 mi
7:00 am50 °FOvercast.5 mph99%29.21 "Hg10 mi
6:40 am51 °FMostly cloudy.5 mph99%29.21 "Hg10 mi
6:00 am51 °FOvercast.7 mph100%29.21 "Hg7 mi
5:40 am52 °FOvercast.3 mph100%29.20 "Hg10 mi
5:00 am52 °FRain. Mostly cloudy.7 mph100%29.19 "Hg2 mi
4:40 am52 °FLight rain. Low clouds.7 mph100%29.18 "Hg3 mi
4:00 am53 °FRain. Partly cloudy.13 mph100%29.18 "Hg4 mi
Weather by CustomWeather, © 2017

See weather overviewHow to use our weather pages